Total_Precipitation_Accumulation
0.82 0.89 0.81 0.75 0.69 0.68 0.68 0.54 0.49 0.46 0.34 0.31 0.29 0.29 0.33 0.30 0.30 0.36 0.47 0.54 0.55 0.69 0.84 0.86 0.76 0.66 0.63 0.60 0.59 0.57 0.52 0.51 0.46 0.40 0.38 0.36 0.35 0.34 0.32 0.32 0.31 0.27 0.25
1.03 1.08 1.02 1.02 0.98 1.00 1.07 0.91 0.76 0.76 0.67 0.62 0.57 0.58 0.59 0.57 0.54 0.58 0.71 0.67 0.60 0.65 0.81 0.93 0.93 0.90 0.88 0.81 0.74 0.65 0.61 0.60 0.57 0.56 0.53 0.48 0.45 0.41 0.40 0.39 0.36 0.32 0.30
1.19 1.24 1.34 1.34 1.29 1.27 1.31 1.31 1.21 1.18 1.09 1.04 0.92 0.76 0.73 0.83 0.89 0.81 0.85 0.91 0.81 0.78 0.77 0.84 0.90 0.96 0.99 0.98 0.96 0.89 0.80 0.74 0.69 0.66 0.62 0.58 0.56 0.54 0.51 0.48 0.44 0.41 0.40
1.36 1.51 1.58 1.59 1.57 1.55 1.62 1.68 1.65 1.49 1.39 1.30 1.19 1.00 0.92 0.93 1.04 1.13 1.10 1.17 1.26 1.15 1.01 0.92 0.91 0.96 1.01 1.04 1.06 1.03 0.94 0.87 0.81 0.77 0.73 0.68 0.68 0.64 0.57 0.53 0.52 0.49 0.47
1.70 1.78 1.86 1.94 1.99 2.05 2.05 1.98 1.98 1.78 1.73 1.65 1.47 1.34 1.18 1.13 1.14 1.17 1.24 1.22 1.26 1.25 1.17 1.05 0.97 0.95 1.01 1.10 1.08 1.08 1.06 1.01 0.94 0.86 0.79 0.74 0.74 0.72 0.67 0.64 0.62 0.57 0.52
2.36 2.44 2.40 2.42 2.43 2.48 2.37 2.34 2.32 2.14 1.98 1.94 1.66 1.49 1.37 1.28 1.25 1.21 1.22 1.20 1.12 1.04 1.06 1.05 1.05 0.97 0.97 0.99 1.03 1.11 1.13 1.15 1.10 1.01 0.96 0.91 0.86 0.79 0.71 0.70 0.66 0.62 0.61
3.38 3.38 3.28 3.17 3.02 2.88 2.72 2.64 2.49 2.31 2.12 2.03 1.90 1.61 1.29 1.11 1.12 1.09 1.08 1.13 1.13 1.04 1.00 1.01 0.97 0.90 0.88 0.92 0.91 0.94 1.02 1.13 1.17 1.15 1.10 1.00 0.87 0.78 0.73 0.70 0.67 0.65 0.65
4.32 4.40 4.29 4.07 3.86 3.48 3.05 2.75 2.54 2.39 2.19 2.13 2.02 1.93 1.53 1.22 1.00 0.85 0.89 0.92 0.96 0.99 0.94 0.88 0.85 0.86 0.86 0.85 0.83 0.85 0.87 0.94 1.08 1.18 1.17 1.07 0.95 0.87 0.81 0.79 0.77 0.76 0.74
4.54 4.70 4.68 4.41 4.02 3.46 2.94 2.75 2.63 2.45 2.29 2.20 2.03 2.02 1.72 1.43 1.15 0.88 0.75 0.72 0.73 0.73 0.73 0.73 0.72 0.75 0.74 0.73 0.71 0.76 0.81 0.84 0.96 1.06 1.02 0.92 0.86 0.85 0.85 0.84 0.83 0.82 0.82
4.45 4.37 4.24 3.86 3.41 3.05 2.77 2.66 2.60 2.38 2.33 2.18 2.06 1.80 1.57 1.36 1.20 0.99 0.82 0.70 0.65 0.61 0.60 0.62 0.62 0.66 0.66 0.63 0.66 0.70 0.72 0.73 0.80 0.81 0.79 0.76 0.75 0.78 0.82 0.87 0.88 0.87 0.89
3.77 3.43 3.11 2.87 2.73 2.51 2.30 2.21 2.16 2.08 1.94 1.82 1.77 1.70 1.61 1.40 1.13 0.93 0.85 0.78 0.75 0.70 0.63 0.62 0.62 0.62 0.62 0.61 0.63 0.71 0.71 0.65 0.64 0.62 0.58 0.56 0.58 0.60 0.62 0.69 0.76 0.82 0.86
3.09 2.68 2.49 2.27 2.12 1.93 1.71 1.58 1.55 1.57 1.60 1.63 1.65 1.59 1.52 1.45 1.30 1.15 1.03 0.92 0.90 0.88 0.78 0.71 0.70 0.69 0.69 0.70 0.75 0.86 0.69 0.62 0.58 0.55 0.52 0.50 0.51 0.53 0.55 0.60 0.68 0.77 0.87
2.79 2.38 2.01 1.82 1.60 1.41 1.32 1.27 1.23 1.23 1.27 1.34 1.45 1.47 1.42 1.37 1.32 1.28 1.25 1.18 1.10 1.02 0.91 0.86 0.83 0.82 0.80 0.79 0.84 0.90 0.69 0.62 0.54 0.49 0.45 0.44 0.45 0.47 0.50 0.54 0.57 0.62 0.68
2.19 1.91 1.51 1.21 1.04 0.92 0.88 0.89 0.92 0.98 1.01 1.05 1.14 1.22 1.21 1.19 1.20 1.22 1.23 1.25 1.32 1.24 1.04 0.96 0.97 0.96 0.90 0.85 0.93 0.88 0.62 0.64 0.54 0.47 0.42 0.39 0.38 0.39 0.40 0.42 0.42 0.43 0.46
1.46 1.23 1.00 0.84 0.76 0.73 0.69 0.67 0.68 0.71 0.75 0.81 0.89 0.97 1.05 1.08 1.07 1.10 1.14 1.16 1.19 1.25 1.18 1.04 0.99 0.95 0.86 0.82 0.92 0.66 0.53 0.60 0.52 0.46 0.42 0.39 0.36 0.34 0.34 0.34 0.34 0.35 0.37
0.86 0.78 0.68 0.64 0.61 0.56 0.55 0.55 0.53 0.54 0.61 0.65 0.68 0.76 0.87 0.96 1.00 1.04 1.08 1.08 1.01 0.99 1.04 0.95 0.87 0.84 0.81 0.76 0.80 0.56 0.51 0.57 0.45 0.38 0.35 0.33 0.30 0.27 0.26 0.26 0.29 0.30 0.30
0.62 0.60 0.53 0.51 0.51 0.50 0.49 0.47 0.48 0.45 0.49 0.59 0.68 0.74 0.79 0.84 0.88 0.89 0.90 0.92 0.97 0.99 1.04 1.02 0.91 0.82 0.77 0.71 0.65 0.54 0.46 0.42 0.38 0.36 0.31 0.28 0.25 0.23 0.22 0.23 0.23 0.23 0.22
0.51 0.50 0.48 0.46 0.46 0.48 0.50 0.48 0.48 0.48 0.48 0.51 0.55 0.58 0.60 0.62 0.67 0.72 0.76 0.76 0.80 0.84 0.89 0.93 0.87 0.75 0.68 0.61 0.54 0.50 0.40 0.33 0.30 0.31 0.29 0.25 0.23 0.21 0.19 0.17 0.15 0.14 0.13
0.47 0.45 0.44 0.44 0.45 0.44 0.45 0.46 0.46 0.45 0.44 0.44 0.42 0.40 0.41 0.43 0.47 0.48 0.51 0.54 0.56 0.57 0.61 0.66 0.66 0.59 0.54 0.48 0.47 0.43 0.37 0.37 0.27 0.26 0.23 0.20 0.17 0.14 0.12 0.10 0.09 0.08 0.07
0.44 0.45 0.45 0.43 0.40 0.35 0.33 0.32 0.31 0.31 0.30 0.31 0.29 0.27 0.27 0.29 0.31 0.34 0.36 0.38 0.41 0.46 0.50 0.54 0.53 0.49 0.44 0.39 0.43 0.43 0.37 0.34 0.27 0.19 0.19 0.16 0.14 0.11 0.09 0.07 0.06 0.06 0.05
0.36 0.35 0.31 0.28 0.24 0.19 0.17 0.17 0.17 0.18 0.19 0.20 0.20 0.18 0.19 0.24 0.28 0.29 0.29 0.33 0.38 0.44 0.46 0.47 0.43 0.40 0.37 0.40 0.42 0.39 0.34 0.29 0.25 0.21 0.24 0.24 0.25 0.25 0.24 0.17 0.10 0.07 0.04
0.27 0.21 0.16 0.15 0.15 0.13 0.13 0.13 0.14 0.14 0.16 0.17 0.19 0.19 0.19 0.21 0.23 0.23 0.26 0.33 0.42 0.44 0.44 0.45 0.42 0.41 0.39 0.40 0.40 0.38 0.37 0.37 0.37 0.28 0.32 0.30 0.28 0.30 0.30 0.27 0.18 0.10 0.06
0.22 0.19 0.14 0.10 0.10 0.11 0.12 0.12 0.13 0.14 0.16 0.18 0.18 0.18 0.18 0.17 0.19 0.20 0.23 0.27 0.31 0.33 0.36 0.42 0.47 0.45 0.45 0.45 0.46 0.44 0.45 0.47 0.45 0.37 0.44 0.42 0.30 0.29 0.22 0.18 0.15 0.11 0.09
0.23 0.22 0.18 0.15 0.13 0.10 0.09 0.09 0.10 0.11 0.14 0.16 0.16 0.17 0.19 0.20 0.20 0.20 0.20 0.21 0.27 0.33 0.32 0.32 0.40 0.41 0.37 0.38 0.42 0.45 0.47 0.50 0.50 0.47 0.50 0.51 0.31 0.28 0.22 0.27 0.23 0.15 0.11
0.20 0.18 0.17 0.17 0.17 0.14 0.08 0.08 0.08 0.09 0.12 0.14 0.14 0.15 0.17 0.21 0.22 0.20 0.20 0.26 0.31 0.36 0.27 0.25 0.30 0.34 0.35 0.36 0.35 0.40 0.55 0.68 0.63 0.48 0.48 0.53 0.41 0.34 0.29 0.31 0.27 0.20 0.15
0.20 0.16 0.14 0.15 0.15 0.14 0.09 0.09 0.09 0.09 0.11 0.11 0.13 0.16 0.16 0.17 0.17 0.15 0.16 0.25 0.35 0.37 0.33 0.37 0.45 0.48 0.48 0.53 0.48 0.50 0.64 0.71 0.68 0.63 0.53 0.54 0.51 0.47 0.44 0.32 0.31 0.30 0.28